This is the latest recevied weather packets stored in our database for station/object KD7KCN-5. If no packets are shown the sender has not sent any weather packets the latest 1 day(s).
| Time | Temp. | Humidity | Pressure | Rain* | Wind** | Luminosity | Snow |
|---|---|---|---|---|---|---|---|
| 1778037706 | 12.22° C | 33% | 1010.6 hPa | 0 mm | 0.89 m/s, 190° | 0 W/m² | - |
| 1778037108 | 12.78° C | 32% | 1010.3 hPa | 0 mm | 0.45 m/s, 172° | 0 W/m² | - |
| 1778036507 | 12.78° C | 32% | 1010.1 hPa | 0 mm | 0 m/s | 0 W/m² | - |
| 1778035906 | 13.33° C | 32% | 1009.9 hPa | 0 mm | 0 m/s | 0 W/m² | - |
| 1778035308 | 13.33° C | 31% | 1009.9 hPa | 0 mm | 0 m/s | 0 W/m² | - |
| 1778034706 | 13.33° C | 31% | 1009.7 hPa | 0 mm | 0.45 m/s, 221° | 0 W/m² | - |
| 1778034107 | 13.33° C | 31% | 1009.4 hPa | 0 mm | 2.24 m/s, 222° | 11 W/m² | - |
| 1778033507 | 13.89° C | 31% | 1009.2 hPa | 0 mm | 0 m/s | 14 W/m² | - |
| 1778032908 | 14.44° C | 30% | 1009 hPa | 0 mm | 3.58 m/s, 227° | 21 W/m² | - |
| 1778032307 | 14.44° C | 30% | 1009 hPa | 0 mm | 2.24 m/s, 234° | 30 W/m² | - |
| 1778031710 | 15° C | 31% | 1008.9 hPa | 0 mm | 0.45 m/s, 204° | 33 W/m² | - |
| 1778031106 | 15.56° C | 30% | 1008.8 hPa | 0 mm | 0.89 m/s, 169° | 46 W/m² | - |
| 1778030507 | 15.56° C | 29% | 1008.7 hPa | 0 mm | 1.79 m/s, 249° | 90 W/m² | - |
| 1778029907 | 15.56° C | 30% | 1008.6 hPa | 0 mm | 0 m/s | 113 W/m² | - |
| 1778029307 | 16.11° C | 29% | 1008.6 hPa | 0 mm | 1.79 m/s, 196° | 105 W/m² | - |
| 1778028707 | 15.56° C | 30% | 1008.6 hPa | 0 mm | 1.34 m/s, 212° | 160 W/m² | - |
| 1778028108 | 15.56° C | 31% | 1008.5 hPa | 0 mm | 0.89 m/s, 175° | 197 W/m² | - |
| 1778027507 | 15.56° C | 31% | 1008.4 hPa | 0 mm | 2.68 m/s, 185° | 186 W/m² | - |
| 1778026907 | 15.56° C | 30% | 1008.4 hPa | 0 mm | 5.81 m/s, 157° | 214 W/m² | - |
| 1778026307 | 16.11° C | 30% | 1008.3 hPa | 0 mm | 2.68 m/s, 163° | 265 W/m² | - |
| 1778025707 | 16.11° C | 30% | 1008.3 hPa | 0 mm | 3.13 m/s, 209° | 265 W/m² | - |
| 1778025108 | 15.56° C | 30% | 1008.2 hPa | 0 mm | 1.34 m/s, 214° | 336 W/m² | - |
| 1778024507 | 16.11° C | 30% | 1008.2 hPa | 0 mm | 0.89 m/s, 140° | 403 W/m² | - |
| 1778023907 | 15° C | 31% | 1008.1 hPa | 0 mm | 1.79 m/s, 132° | 485 W/m² | - |
| 1778023307 | 15° C | 31% | 1008.3 hPa | 0 mm | 3.58 m/s, 162° | 162 W/m² | - |
* Rain latest hour (hover to see other rain measurements)
** Current wind speed in m/s (hover to see current wind gust speed)